This demonstration page uses our WeatherBlox Daily Observations layout. Learn more.

Left ArrowRight Arrow

Hourly Observations for January 17, 2022

Temp ( °F °C ) Dew Point ( °F °C ) Humidity (%) Winds ( mph kmh ) Pressure ( in mb ) Visibility ( mi km ) Precip ( " mm )
12:52 am 00:52 Clear 24 -4.4 21 -6.1 88 88 NW 7 11 30.03 1017 10 16 0.00 0.00
1:52 am 01:52 Clear 26 -3.3 23 -5 88 88 N 6 9 30.03 1017 10 16 0.00 0.00
2:52 am 02:52 Clear 23 -5 21 -6.1 92 92 NNW 5 7 30.05 1018 10 16 0.00 0.00
3:52 am 03:52 Clear 23 -5 21 -6.1 92 92 N 6 9 30.04 1017 10 16 0.00 0.00
4:52 am 04:52 Partly Cloudy 21 -6.1 19 -7.2 92 92 N 5 7 30.03 1017 10 16 0.00 0.00
5:52 am 05:52 Mostly Cloudy 20 -6.7 19 -7.2 96 96 Calm 30.03 1017 10 16 0.00 0.00
6:25 am 06:25 Mostly Cloudy with Mist and Fog 19 -7.2 16 -8.9 88 88 Calm 30.09 1019 1 1 0.00 0.00
6:31 am 06:31 Mostly Cloudy with Freezing Fog 20 -6.7 17 -8.3 89 89 E 3 6 30.08 1019 0 0 0.00 0.00
6:36 am 06:36 Mostly Cloudy with Freezing Fog 20 -6.7 17 -8.3 89 89 E 3 6 30.08 1019 1 1 0.00 0.00
6:47 am 06:47 Mostly Clear with Mist and Fog 19 -7 18 -8 93 93 Calm 30.09 1019 2 2 0.00 0.00
6:50 am 06:50 Mostly Cloudy with Mist and Fog 19 -7 18 -8 93 93 Calm 30.08 1019 2 3 0.00 0.00
6:52 am 06:52 Mostly Cloudy with Mist and Fog 20 -6.7 18 -7.8 92 92 Calm 30.03 1017 2 3 0.00 0.00
7:01 am 07:01 Mostly Cloudy with Patchy Fog 21 -6.1 19 -7.2 92 92 S 5 7 30.08 1019 7 11 0.00 0.00
7:52 am 07:52 Mostly Cloudy 21 -6.1 19 -7.2 92 92 ESE 3 6 30.03 1017 9 14 0.00 0.00
8:52 am 08:52 Mostly Cloudy 23 -5 21 -6.1 92 92 SE 6 9 30.02 1017 10 16 0.00 0.00
9:52 am 09:52 Mostly Cloudy 26 -3.3 24 -4.4 92 92 SE 6 9 30.02 1017 8 13 0.00 0.00
10:52 am 10:52 Mostly Cloudy 31 -0.6 27 -2.8 85 85 S 8 13 30.01 1016 10 16 0.00 0.00
11:52 am 11:52 Cloudy 33 0.6 27 -2.8 78 78 SE 8 13 29.98 1015 10 16 0.00 0.00
12:52 pm 12:52 Cloudy 36 2.2 28 -2.2 73 73 SSE 9 15 29.96 1015 10 16 0.00 0.00
1:52 pm 13:52 Mostly Cloudy 36 2.2 29 -1.7 76 76 SSE 13 20 29.91 1013 10 16 0.00 0.00
2:52 pm 14:52 Mostly Sunny 37 2.8 29 -1.7 73 73 SSE 13 20 29.88 1012 10 16 0.00 0.00
3:52 pm 15:52 Mostly Sunny 39 3.9 29 -1.7 67 67 S 9 15 29.88 1012 10 16 0.00 0.00
4:52 pm 16:52 Mostly Sunny 36 2.2 30 -1.1 79 79 SSE 12 19 29.88 1012 10 16 0.00 0.00
5:52 pm 17:52 Mostly Clear 34 1.1 29 -1.7 82 82 SSE 9 15 29.88 1012 10 16 0.00 0.00
6:52 pm 18:52 Mostly Clear 33 0.6 29 -1.7 85 85 SSE 10 17 29.88 1012 10 16 0.00 0.00
7:52 pm 19:52 Mostly Clear 33 0.6 29 -1.7 85 85 SSE 13 20 29.87 1011 10 16 0.00 0.00
8:52 pm 20:52 Mostly Clear 33 0.6 29 -1.7 85 85 SSE 10 17 29.85 1011 10 16 0.00 0.00
9:52 pm 21:52 Clear 31 -0.6 27 -2.8 85 85 SSE 9 15 29.84 1011 10 16 0.00 0.00
10:52 pm 22:52 Clear 28 -2.2 25 -3.9 88 88 SSE 8 13 29.83 1010 10 16 0.00 0.00
11:52 pm 23:52 Clear 28 -2.2 25 -3.9 88 88 SE 9 15 29.82 1010 10 16 0.00 0.00

Powered by AerisWeather